(329267) = 1999 RQ153 = 2006 TV40

Discovered at Socorro on 1999-09-09 by LINEAR.

Orbit

Orbit type: Main Belt

Note: WebGL enabled browser required.

epoch2024-03-31.0
epoch JD2460400.5
perihelion date2023-08-20.09060
perihelion JD2460176.59060
argument of perihelion (°)152.84372
ascending node (°)218.01388
inclination (°)5.05119
eccentricity0.1889221
perihelion distance (AU)1.8325430
Tisserand w.r.t. Jupiter3.6
ΔV w.r.t. Earth (km/sec)8.5
semimajor axis (AU)2.2593920
mean anomaly (°)64.98136
mean daily motion (°/day)0.29021270
aphelion distance (AU)2.686
period (years)3.4
P-vector [x]0.98100675
P-vector [y]0.15812125
P-vector [z]0.11235402
Q-vector [x]-0.18624071
Q-vector [y]0.92972175
Q-vector [z]0.31769777
absolute magnitude17.57
phase slope0.15
uncertainty0
referenceMPEC 2024-F28
observations used384
oppositions12
arc length (days)8894
first opposition used1999
last opposition used2024
residual rms (arc-secs)0.75
perturbers coarse indicatorM-v
perturbers precise indicator003Ek
first observation date used1999-09-05.0
last observation date used2024-01-11.0
computer nameMPCLINUX
JD of orbit computation2456670.874544
perihelion JD uncertainty (days)1.2479E-04
argument of perihelion uncertainty (°)5.9547E-05
ascending node uncertainty (°)5.2584E-05
inclination uncertainty (°)9.8834E-06
eccentricity uncertainty 1.4464E-07
perihelion distance uncertainty (AU)3.0809E-07
Minimum Orbit Intersection Distances (in AU)
for orbit epoch: 2460400.5, reference: E2024-F28
Mercury1.48262
Venus1.11195
Earth0.83445
Mars0.41705
Jupiter2.77699
Saturn6.73799
Uranus15.7933
Neptune27.8617

Observations

388 total observations over interval: 1999 09 05.24865 – 2024 01 11.157327
These data are available for download (format description).

Date (UT) J2000 RA J2000 Dec Magn Location Ref
1999 09 05.24865 22 50 57.11 +02 20 00.3 19.0 R 703 – Catalina Sky Survey MPS 15180
1999 09 05.25968 22 50 56.62 +02 19 54.1 18.9 R 703 – Catalina Sky Survey MPS 15180
1999 09 05.27074 22 50 56.06 +02 19 49.4 18.4 R 703 – Catalina Sky Survey MPS 15180
1999 09 05.28173 22 50 55.45 +02 19 45.5 19.1 R 703 – Catalina Sky Survey MPS 15180
1999 09 09.34330 22 47 44.05 +01 48 28.0 19.0   704 – Lincoln Laboratory ETS, New Mexico MPS 6359
1999 09 09.35714 22 47 43.39 +01 48 22.0 20.0   704 – Lincoln Laboratory ETS, New Mexico MPS 6359
1999 09 09.37107 22 47 42.69 +01 48 14.1 19.6   704 – Lincoln Laboratory ETS, New Mexico MPS 6359
1999 09 09.38535 22 47 41.99 +01 48 08.0 19.6   704 – Lincoln Laboratory ETS, New Mexico MPS 6359
1999 09 09.39923 22 47 41.31 +01 48 00.2 20.0   704 – Lincoln Laboratory ETS, New Mexico MPS 6359
1999 09 14.19700 22 44 03.86 +01 08 17.1 19.2   704 – Lincoln Laboratory ETS, New Mexico MPS 6359
1999 09 14.20981 22 44 03.24 +01 08 11.2 20.0   704 – Lincoln Laboratory ETS, New Mexico MPS 6359
1999 09 14.22271 22 44 02.64 +01 08 04.6 19.1   704 – Lincoln Laboratory ETS, New Mexico MPS 6359
1999 09 14.23556 22 44 02.02 +01 07 57.9 19.7   704 – Lincoln Laboratory ETS, New Mexico MPS 6359
1999 09 14.24852 22 44 01.43 +01 07 51.2 19.3   704 – Lincoln Laboratory ETS, New Mexico MPS 6359
2005 04 07.42335 14 46 51.16 -16 37 26.5 21.4 V 691 – Steward Observatory, Kitt Peak-Spacewatch MPS 197962
2005 04 07.44127 14 46 50.37 -16 37 21.4 21.1 V 691 – Steward Observatory, Kitt Peak-Spacewatch MPS 197962
2005 04 07.45921 14 46 49.61 -16 37 16.5 20.8 V 691 – Steward Observatory, Kitt Peak-Spacewatch MPS 197962
2005 04 16.35823 14 39 36.96 -15 48 54.3 21.0 V 691 – Steward Observatory, Kitt Peak-Spacewatch MPS 197962
2005 04 16.37648 14 39 36.01 -15 48 47.4 21.4 V 691 – Steward Observatory, Kitt Peak-Spacewatch MPS 197962
2005 04 16.39492 14 39 35.00 -15 48 40.9 20.9 V 691 – Steward Observatory, Kitt Peak-Spacewatch MPS 197962
2006 09 28.29554 02 55 05.80 +18 53 27.7 19.4 V G96 – Mt. Lemmon Survey MPS 197962
2006 09 28.30191 02 55 05.80 +18 53 26.3 19.4 V G96 – Mt. Lemmon Survey MPS 197962
2006 09 28.30799 02 55 05.77 +18 53 25.1 19.3 V G96 – Mt. Lemmon Survey MPS 197962
2006 09 28.31399 02 55 05.73 +18 53 23.8 19.4 V G96 – Mt. Lemmon Survey MPS 197962
2006 10 12.32651 02 51 05.02 +17 39 56.5   691 – Steward Observatory, Kitt Peak-Spacewatch MPS 183143
2006 10 12.34385 02 51 04.41 +17 39 49.2   691 – Steward Observatory, Kitt Peak-Spacewatch MPS 183143
2006 10 12.36171 02 51 03.77 +17 39 42.1   691 – Steward Observatory, Kitt Peak-Spacewatch MPS 183143
2006 10 16.36791 02 48 40.51 +17 11 01.6 19.4 V 691 – Steward Observatory, Kitt Peak-Spacewatch MPS 183143
2006 10 16.38532 02 48 39.76 +17 10 53.6 19.5 V 691 – Steward Observatory, Kitt Peak-Spacewatch MPS 183143
2006 10 16.40269 02 48 39.02 +17 10 45.6 19.6 V 691 – Steward Observatory, Kitt Peak-Spacewatch MPS 183143
2006 10 20.34471 02 45 52.31 +16 39 46.1 19.5 V 691 – Steward Observatory, Kitt Peak-Spacewatch MPS 182686
2006 10 20.36205 02 45 51.47 +16 39 37.6 19.5 V 691 – Steward Observatory, Kitt Peak-Spacewatch MPS 182686
2006 10 20.37940 02 45 50.62 +16 39 29.0 19.5 V 691 – Steward Observatory, Kitt Peak-Spacewatch MPS 182686
2006 10 21.47871 02 44 59.94 +16 30 24.4 18.8 R 644 – Palomar Mountain/NEAT MPS 185189
2006 10 21.49898 02 44 58.97 +16 30 13.9 19.3 R 644 – Palomar Mountain/NEAT MPS 185189
2006 10 21.51927 02 44 57.99 +16 30 03.7 18.8 R 644 – Palomar Mountain/NEAT MPS 185189
2006 10 27.34281 02 40 10.59 +15 39 42.8 19.0 V G96 – Mt. Lemmon Survey MPS 185189
2006 10 27.35280 02 40 10.05 +15 39 37.5 19.0 V G96 – Mt. Lemmon Survey MPS 185189
2006 10 27.36279 02 40 09.51 +15 39 32.1 18.8 V G96 – Mt. Lemmon Survey MPS 185189
2006 10 27.37281 02 40 08.94 +15 39 26.7 18.8 V G96 – Mt. Lemmon Survey MPS 185189
2006 10 28.33334 02 39 19.22 +15 30 52.1 19.8 V 691 – Steward Observatory, Kitt Peak-Spacewatch MPS 185189
2006 10 28.35074 02 39 18.26 +15 30 43.0 19.7 V 691 – Steward Observatory, Kitt Peak-Spacewatch MPS 185189
2006 10 28.36868 02 39 17.25 +15 30 33.2 19.7 V 691 – Steward Observatory, Kitt Peak-Spacewatch MPS 185189
2006 10 31.30448 02 36 43.05 +15 04 04.6   691 – Steward Observatory, Kitt Peak-Spacewatch MPS 185189
2006 10 31.32186 02 36 42.06 +15 03 55.1   691 – Steward Observatory, Kitt Peak-Spacewatch MPS 185189
2006 10 31.33924 02 36 41.08 +15 03 45.7   691 – Steward Observatory, Kitt Peak-Spacewatch MPS 185189
2006 11 08.33485 02 29 44.13 +13 51 56.3 18.6 R 644 – Palomar Mountain/NEAT MPS 190245
2006 11 08.33603 02 29 44.06 +13 51 55.8 19.0 R 644 – Palomar Mountain/NEAT MPS 190245
2006 11 08.35530 02 29 43.02 +13 51 45.4 18.8 R 644 – Palomar Mountain/NEAT MPS 190245
2006 11 08.35649 02 29 42.97 +13 51 44.8 19.0 R 644 – Palomar Mountain/NEAT MPS 190245
2006 11 08.37571 02 29 41.94 +13 51 34.6 18.5 R 644 – Palomar Mountain/NEAT MPS 190245
2006 11 08.37689 02 29 41.87 +13 51 34.0 18.8 R 644 – Palomar Mountain/NEAT MPS 190245
2006 11 11.28451 02 27 19.47 +13 26 27.8 19.1 V 703 – Catalina Sky Survey MPS 186715
2006 11 11.29557 02 27 18.82 +13 26 23.3 19.0 V 703 – Catalina Sky Survey MPS 186715
2006 11 11.30664 02 27 18.25 +13 26 16.3 19.1 V 703 – Catalina Sky Survey MPS 186715
2006 11 11.31770 02 27 17.67 +13 26 11.3 19.1 V 703 – Catalina Sky Survey MPS 186715
2006 11 18.21267 02 22 17.52 +12 31 12.8 19.1   704 – Lincoln Laboratory ETS, New Mexico MPS 188282
2006 11 18.22486 02 22 16.98 +12 31 06.4 19.5   704 – Lincoln Laboratory ETS, New Mexico MPS 188282
2006 11 18.24923 02 22 15.88 +12 30 56.4 19.6   704 – Lincoln Laboratory ETS, New Mexico MPS 188282
2006 11 18.26176 02 22 15.50 +12 30 50.7 20.0   704 – Lincoln Laboratory ETS, New Mexico MPS 188282
2006 11 21.18833 02 20 29.28 +12 10 04.4 19.2   704 – Lincoln Laboratory ETS, New Mexico MPS 188282
2006 11 21.20057 02 20 28.84 +12 09 59.9 19.7   704 – Lincoln Laboratory ETS, New Mexico MPS 188282
2006 11 21.21290 02 20 28.47 +12 09 53.8 20.1   704 – Lincoln Laboratory ETS, New Mexico MPS 188282
2006 11 21.22515 02 20 27.87 +12 09 48.6 19.6   704 – Lincoln Laboratory ETS, New Mexico MPS 188282
2006 11 27.21822 02 17 38.68 +11 33 14.7 19.9 V 703 – Catalina Sky Survey MPS 190245
2006 11 27.22831 02 17 38.43 +11 33 11.7 19.5 V 703 – Catalina Sky Survey MPS 190245
2006 11 27.23843 02 17 38.14 +11 33 09.1 19.6 V 703 – Catalina Sky Survey MPS 190245
2006 11 27.24857 02 17 37.96 +11 33 04.8 19.5 V 703 – Catalina Sky Survey MPS 190245
2006 12 19.11176 02 17 40.77 +10 35 17.5 20.4 R 850 – Cordell-Lorenz Observatory, Sewanee MPS 191746
2006 12 19.13462 02 17 41.22 +10 35 17.9 20.1 R 850 – Cordell-Lorenz Observatory, Sewanee MPS 191746
2006 12 19.15749 02 17 41.69 +10 35 17.7 19.9 R 850 – Cordell-Lorenz Observatory, Sewanee MPS 191746
2006 12 26.12675 02 21 04.03 +10 40 41.4 20.3 V G96 – Mt. Lemmon Survey MPS 191746
2006 12 26.13345 02 21 04.24 +10 40 41.6 20.3 V G96 – Mt. Lemmon Survey MPS 191746
2006 12 26.14017 02 21 04.46 +10 40 42.4 20.3 V G96 – Mt. Lemmon Survey MPS 191746
2006 12 26.14688 02 21 04.68 +10 40 42.9 20.4 V G96 – Mt. Lemmon Survey MPS 191746
2011 01 30.35319 09 39 38.569 +05 24 35.71 21.0 w F51 – Pan-STARRS 1, Haleakala MPS 378553
2011 01 30.36772 09 39 37.693 +05 24 39.73 21.0 w F51 – Pan-STARRS 1, Haleakala MPS 378553
2011 01 30.38335 09 39 36.734 +05 24 43.94 21.1 w F51 – Pan-STARRS 1, Haleakala MPS 378553
2011 01 30.39791 09 39 35.845 +05 24 47.96 21.2 w F51 – Pan-STARRS 1, Haleakala MPS 378553
2012 04 30.39066 16 18 25.99 -18 51 56.6 21.1 V G96 – Mt. Lemmon Survey MPS 422804
2012 04 30.39591 16 18 25.74 -18 51 55.2 20.5 V G96 – Mt. Lemmon Survey MPS 422804
2012 04 30.40115 16 18 25.45 -18 51 54.3 20.6 V G96 – Mt. Lemmon Survey MPS 422804
2012 04 30.40634 16 18 25.30 -18 51 52.6 21.0 V G96 – Mt. Lemmon Survey MPS 422804
2012 05 27.30920 15 52 30.25 -16 38 05.1 20.4 V G96 – Mt. Lemmon Survey MPS 425985
2012 05 27.31667 15 52 29.78 -16 38 03.5 20.4 V G96 – Mt. Lemmon Survey MPS 425985
2012 05 27.32417 15 52 29.31 -16 38 00.8 20.4 V G96 – Mt. Lemmon Survey MPS 425985
2012 05 27.33159 15 52 28.81 -16 37 58.5 20.4 V G96 – Mt. Lemmon Survey MPS 425985
